Location: Niedergestelen
(46.3129°N, 7.7822°E)
Time: 04:57:58
(UTC+00:00)

Cosmos 1606 - Pass Details

Date: 01 December 2020
Orbit: 502 x 527 km, 82.5° (Epoch: 18 January)

Event Time Altitude Azimuth Distance (km) Brightness Sun altitude
Rises 16:48:13 0° 202° (SSW) 2,653 7.0 -10.8°
Reaches altitude 10° 16:50:25 10° 208° (SSW) 1,768 6.2 -11.1°
Maximum altitude 16:54:09 46° 282° (WNW) 718 3.8 -11.7°
Drops below altitude 10° 16:57:56 10° 357° (N) 1,776 5.2 -12.3°
Sets 17:00:08 0° 4° (N) 2,666 6.1 -12.7°
